[[{"header":{"parameterUnit":"m.s-1","parameterCategory":1,"la1":30.2991,"la2":30.254,"lo1":-89.0895,"lo2":-89.0444,"dy":0.0017,"dx":0.0017,"nx":28,"ny":28,"refTime":"2024-10-05T03:00:00:Z","depth":0,"parameterNumber":2,"parameterNumberName":"U-component_of_WINDS"},"data":[0,0,0,0,0,0,0,0,0,0,0,0,0,0,0,0,0,0,0,0,0,0,0,0,0,0,0,0,0,0,0,0,0,0,0,0,0,0,0,0,0,0,0,0,0,0,0,0,0,0,0,0,0,0,0,0,0,0,-6.3327,-6.3328,0,-6.3392,-6.3393,-6.3394,-6.3256,-6.3251,-6.3247,-6.3243,-6.3306,-6.3312,-6.3318,0,0,0,0,0,0,0,0,0,0,0,0,0,-6.308,-6.3085,-6.3327,-6.3328,-6.3329,-6.3392,-6.3393,-6.3394,-6.3257,-6.3251,-6.3246,-6.3241,-6.3305,-6.3311,-6.3318,0,0,0,0,0,0,0,0,0,0,0,0,0,-6.317,-6.3087,-6.3327,-6.3268,-6.3263,-6.3392,-6.3393,-6.3394,-6.3258,-6.3251,-6.3244,-6.3238,-6.3302,-6.3311,-6.3319,-6.3508,0,0,-6.3346,-6.335,0,0,0,0,0,0,0,0,-6.3165,-6.318,-6.3276,-6.3272,-6.3267,-6.3309,-6.3329,-6.3432,-6.3259,-6.326,-6.3242,-6.3235,-6.3313,-6.332,-6.3347,-6.3511,-6.3513,-6.3347,-6.3352,-6.3356,-6.3359,0,0,0,0,0,0,0,-6.3159,-6.3176,-6.3353,-6.3277,-6.3272,-6.3237,-6.3242,-6.3348,-6.3323,-6.3259,-6.3249,-6.3259,-6.3309,-6.3339,-6.3347,-6.3514,-6.3347,-6.3355,-6.336,-6.3363,-6.3832,-6.3839,0,0,0,0,0,0,-6.3161,-6.3172,-6.3351,-6.3355,-6.3199,-6.3247,-6.3253,-6.3302,-6.3321,-6.3318,-6.3265,-6.3252,-6.3327,-6.3337,-6.3349,-6.3568,-6.3356,-6.3364,-6.3369,-6.3825,-6.3834,-6.3842,0,0,0,0,0,0,-6.3156,-6.3178,-6.3348,-6.3261,-6.3279,-6.3258,-6.3315,-6.3307,-6.3337,-6.3326,-6.332,-6.33,-6.3322,-6.3337,-6.3469,-6.3568,-6.3368,-6.3376,-6.3817,-6.3828,-6.3838,-6.4009,0,0,0,0,0,0,-6.315,-6.3177,-6.325,-6.3263,-6.3285,-6.3468,-6.3321,-6.3313,-6.3353,-6.3337,-6.3357,-6.3354,-6.3318,-6.3456,-6.3478,-6.3577,-6.3383,-6.3808,-6.3822,-6.3835,-6.3995,-6.4025,-6.405,0,0,0,0,0,-6.3141,-6.3295,-6.3254,-6.3276,-6.3375,-6.3474,-6.3486,-6.3443,-6.3361,-6.3433,-6.3425,-6.3353,-6.3555,-6.3471,-6.3494,-6.3597,-6.3801,-6.3818,-6.3834,-6.3982,-6.4019,-6.405,0,0,0,0,0,0,-6.3293,-6.3296,-6.325,-6.3414,-6.3445,-6.3451,-6.354,-6.3483,-6.3537,-6.3521,-6.3463,-6.3469,-6.3611,-6.3618,-6.3524,-6.3779,-6.3664,-6.3685,-6.3769,-6.3804,-6.3831,-6.3825,-6.339,0,0,0,0,0,-6.3346,-6.3428,-6.3425,-6.3569,-6.3588,-6.3562,-6.3603,-6.3567,-6.3597,-6.3609,-6.3611,-6.3642,-6.3711,-6.3758,-6.3822,-6.3996,-6.3996,-6.4078,-6.4106,-6.4129,-6.4147,-6.4236,-6.4272,-6.3895,-6.3895,-6.3895,0,0,-6.3455,-6.3467,-6.3522,-6.36,-6.362,-6.3704,-6.3573,-6.3669,-6.373,-6.3623,-6.3747,-6.375,-6.378,-6.3933,-6.4001,-6.3943,-6.4252,-6.4149,-6.4168,-6.4173,-6.4257,-6.4292,-6.4324,-6.3906,-6.3904,-6.3902,0,0,-6.3696,-6.3715,-6.3836,-6.3858,-6.389,-6.3872,-6.3901,-6.3916,-6.3914,-6.4038,-6.3959,-6.403,-6.4153,-6.4177,-6.4205,-6.4455,-6.439,-6.4478,-6.4622,-6.471,-6.474,-6.4765,-6.4852,-6.4884,-6.4497,-6.4497,-6.4497,0,-6.3828,-6.3952,-6.3905,-6.4005,-6.4041,-6.3949,-6.4069,-6.4093,-6.4145,-6.4171,-6.4106,-6.4256,-6.427,-6.4426,-6.4487,-6.4514,-6.4543,-6.4474,-6.4739,-6.4765,-6.4788,-6.487,-6.4903,-6.4507,-6.4506,-6.4505,-6.4504,0,-6.4111,-6.4198,-6.4292,-6.4344,-6.439,-6.4501,-6.4468,-6.4521,-6.4481,-6.4469,-6.4595,-6.4609,-6.4673,-6.4708,-6.4669,-6.4858,-6.4821,-6.4749,-6.4632,-6.4835,-6.4911,-6.4942,-6.4522,-6.4518,-6.4515,-6.4513,0,0,-6.4448,-6.4472,-6.4507,-6.4528,-6.4557,-6.4623,-6.4728,-6.4791,-6.4836,-6.4875,-6.496,-6.5066,-6.4999,-6.5031,-6.4995,-6.5073,-6.5266,-6.499,-6.499,-6.5038,-6.5471,-6.5523,-6.556,-6.5224,-6.523,-6.5235,-6.5468,0,-6.4684,-6.4866,-6.4826,-6.5004,-6.5082,-6.4996,-6.5087,-6.5114,-6.5106,-6.5171,-6.5161,-6.5236,-6.5143,-6.5162,-6.5235,-6.5227,-6.5352,-6.521,-6.53,-6.5304,-6.5292,-6.56,-6.5656,-6.5875,-6.5497,-6.5502,-6.5506,0,-6.4984,-6.5034,-6.522,-6.5234,-6.5266,-6.5349,-6.5402,-6.5466,-6.5494,-6.5482,-6.5519,-6.5467,-6.5569,-6.5453,-6.5592,-6.5497,-6.5531,-6.5533,-6.5541,-6.5545,-6.5415,-6.561,-6.5944,-6.5976,-6.5553,-6.5549,-6.5546,0,-6.5208,-6.5322,-6.5447,-6.5469,-6.5489,-6.5549,-6.556,-6.5581,-6.5621,-6.5668,-6.5693,-6.5751,-6.5783,-6.5828,-6.5793,-6.5712,-6.5937,-6.5819,-6.5928,-6.5929,-6.5976,-6.5973,-6.6318,-6.6005,-6.6004,-6.6003,-6.6003,0,-6.5474,-6.5591,-6.5547,-6.5624,-6.5751,-6.5704,-6.5831,-6.5832,-6.5851,-6.5925,-6.5855,-6.5926,-6.5877,-6.5943,-6.5917,-6.6034,-6.6049,-6.6041,-6.6032,-6.6046,-6.6047,-6.6065,-6.6048,-6.6012,-6.601,-6.6008,-6.6007,0,-6.5744,-6.5721,-6.5851,-6.586,-6.5864,-6.5958,-6.5964,-6.6034,-6.6021,-6.6116,-6.6135,-6.6115,-6.6189,-6.6159,-6.6238,-6.622,-6.6369,-6.6342,-6.636,-6.6352,-6.6461,-6.645,-6.6828,-6.6873,-6.6534,-6.6537,-6.654,0,-6.5915,-6.6002,-6.602,-6.6065,-6.6081,-6.6155,-6.6195,-6.6152,-6.6196,-6.6234,-6.63,-6.6368,-6.642,-6.6543,-6.6534,-6.6593,-6.6564,-6.6693,-6.6573,-6.6583,-6.6563,-6.6557,-6.6564,-6.6716,-6.672,-6.6723,-6.6725,0,-6.6218,-6.6202,-6.6263,-6.6321,-6.6371,-6.6414,-6.645,-6.6491,-6.6449,-6.6502,-6.6578,-6.6618,-6.6699,-6.6767,-6.6819,-6.6829,-6.677,-6.6764,-6.6791,-6.6805,-6.6811,-6.6806,-6.6422,-6.6755,-6.6752,-6.6749,-6.6748,-6.6747,-6.6441,-6.6514,-6.6538,-6.6608,-6.6631,-6.6666,-6.6732,-6.6727,-6.679,-6.6852,-6.6823,-6.691,-6.6933,-6.6998,-6.7016,-6.7082,-6.7032,-6.7073,-6.7083,-6.7093,-6.7106,-6.6803,-6.7092,-6.7091,-6.709,-6.709,-6.7089,0,-6.6738,-6.6749,-6.6814,-6.6867,-6.6922,-6.6864,-6.6901,-6.695,-6.7028,-6.7055,-6.7108,-6.7194,-6.7259,-6.7256,-6.7316,-6.7369,-6.7344,-6.7386,-6.738,-6.7383,-6.7149,-6.7117,-6.7406,-6.7406,-6.7406,-6.7406,-6.7406,-6.7406,-6.6899,-6.7018,-6.7005,-6.7134,-6.7143,-6.7228,-6.7254,-6.7286,-6.7308,-6.7407,-6.7461,-6.7458,-6.7473,-6.7533,-6.759,-6.7587,-6.7611,-6.7664,-6.765,-6.7431,-6.74,-6.737,-6.7339,-6.767,-6.767,-6.7878,-6.788,-6.7882]},{"header":{"parameterUnit":"m.s-1","parameterCategory":1,"la1":30.2991,"la2":30.254,"lo1":-89.0895,"lo2":-89.0444,"dy":0.0017,"dx":0.0017,"nx":28,"ny":28,"refTime":"2024-10-05T03:00:00:Z","depth":0,"parameterNumber":3,"parameterNumberName":"V-component_of_WINDS"},"data":[0,0,0,0,0,0,0,0,0,0,0,0,0,0,0,0,0,0,0,0,0,0,0,0,0,0,0,0,0,0,0,0,0,0,0,0,0,0,0,0,0,0,0,0,0,0,0,0,0,0,0,0,0,0,0,0,0,0,0.5413,0.5413,0,0.5413,0.5413,0.5413,0.5428,0.5429,0.5429,0.543,0.5426,0.5425,0.5425,0,0,0,0,0,0,0,0,0,0,0,0,0,0.5423,0.5423,0.5413,0.5413,0.5413,0.5413,0.5413,0.5413,0.5428,0.5429,0.5429,0.543,0.5426,0.5425,0.5425,0,0,0,0,0,0,0,0,0,0,0,0,0,0.542,0.5423,0.5413,0.5421,0.5421,0.5413,0.5413,0.5413,0.5428,0.5429,0.5429,0.543,0.5426,0.5425,0.5425,0.5407,0,0,0.5422,0.5422,0,0,0,0,0,0,0,0,0.5421,0.542,0.5419,0.542,0.5421,0.5421,0.5415,0.5411,0.5428,0.5425,0.543,0.543,0.5423,0.5423,0.5422,0.5407,0.5407,0.5422,0.5422,0.5422,0.5421,0,0,0,0,0,0,0,0.5421,0.542,0.5413,0.5419,0.542,0.5423,0.5424,0.5414,0.5421,0.5426,0.5427,0.5427,0.5424,0.5422,0.5422,0.5407,0.5422,0.5422,0.5421,0.5421,0.5379,0.5379,0,0,0,0,0,0,0.542,0.542,0.5413,0.5413,0.5422,0.5423,0.5423,0.542,0.5421,0.5422,0.5426,0.5428,0.5423,0.5422,0.5421,0.5402,0.5422,0.5421,0.542,0.538,0.5379,0.5379,0,0,0,0,0,0,0.5421,0.542,0.5413,0.5417,0.5416,0.5422,0.5419,0.542,0.5418,0.5422,0.5422,0.5424,0.5424,0.5422,0.5411,0.5402,0.5421,0.542,0.5381,0.538,0.5379,0.5362,0,0,0,0,0,0,0.5421,0.542,0.5413,0.5417,0.5416,0.5403,0.5418,0.542,0.5417,0.5419,0.5419,0.542,0.5424,0.5412,0.5411,0.5401,0.5419,0.5382,0.538,0.5379,0.5363,0.536,0.5358,0,0,0,0,0,0.5421,0.5408,0.5413,0.5412,0.5409,0.5402,0.5402,0.5408,0.5417,0.541,0.5413,0.542,0.5403,0.5411,0.5409,0.5399,0.5382,0.5381,0.5379,0.5364,0.5361,0.5358,0,0,0,0,0,0,0.5401,0.5408,0.5414,0.5401,0.5402,0.5405,0.5397,0.5404,0.5401,0.5402,0.541,0.5409,0.5397,0.5397,0.5406,0.5383,0.5394,0.5392,0.5383,0.538,0.5377,0.5377,0.5419,0,0,0,0,0,0.5396,0.5391,0.5397,0.5385,0.5385,0.5391,0.5389,0.5394,0.5394,0.5393,0.5395,0.5393,0.5388,0.5384,0.5379,0.5364,0.5364,0.5356,0.5353,0.5351,0.5349,0.5341,0.5338,0.5374,0.5374,0.5374,0,0,0.5384,0.5387,0.5383,0.5381,0.5382,0.5376,0.5391,0.5384,0.538,0.5392,0.5382,0.5383,0.5382,0.5368,0.5363,0.5368,0.5339,0.5349,0.5347,0.5346,0.5339,0.5336,0.5333,0.5373,0.5373,0.5373,0,0,0.5359,0.5361,0.5351,0.5352,0.5354,0.5359,0.5356,0.5359,0.5361,0.5352,0.5361,0.5355,0.5346,0.5345,0.5343,0.532,0.5326,0.5318,0.5304,0.5296,0.5293,0.5291,0.5282,0.5279,0.5316,0.5316,0.5316,0,0.5343,0.5336,0.5345,0.5339,0.5337,0.535,0.5341,0.5341,0.534,0.5338,0.5345,0.5335,0.5335,0.5322,0.5316,0.5314,0.5312,0.5318,0.5293,0.5291,0.5289,0.5281,0.5277,0.5315,0.5315,0.5316,0.5316,0,0.5316,0.5311,0.5304,0.5305,0.5303,0.5294,0.5302,0.5299,0.5305,0.5309,0.5299,0.53,0.5296,0.5293,0.5298,0.5281,0.5285,0.5292,0.5303,0.5284,0.5277,0.5274,0.5314,0.5314,0.5315,0.5315,0,0,0.5277,0.5285,0.5282,0.5283,0.5287,0.5282,0.5275,0.5273,0.527,0.5269,0.5263,0.5256,0.5263,0.5261,0.5266,0.526,0.5241,0.5268,0.5268,0.5263,0.5223,0.5216,0.5213,0.5246,0.5246,0.5245,0.5223,0,0.5253,0.5241,0.525,0.5237,0.5233,0.5246,0.5239,0.524,0.5244,0.524,0.5244,0.5238,0.5249,0.5248,0.5242,0.5245,0.5233,0.5247,0.5239,0.5239,0.5239,0.5209,0.5202,0.518,0.522,0.5219,0.5219,0,0.5222,0.5223,0.5209,0.5215,0.5213,0.5207,0.5207,0.5203,0.5205,0.5208,0.5207,0.5214,0.5207,0.5219,0.5208,0.5217,0.5215,0.5216,0.5215,0.5214,0.5227,0.5206,0.5174,0.517,0.5215,0.5215,0.5215,0,0.5195,0.5191,0.5183,0.5184,0.519,0.5186,0.5188,0.5191,0.5189,0.5188,0.5187,0.5185,0.5183,0.5181,0.5188,0.5196,0.5176,0.5189,0.5178,0.5178,0.5172,0.5172,0.5138,0.5172,0.5172,0.5172,0.5172,0,0.5166,0.5157,0.5171,0.5166,0.5157,0.5167,0.5157,0.5161,0.5163,0.5159,0.517,0.5165,0.5174,0.517,0.5175,0.5165,0.5165,0.5166,0.5168,0.5165,0.5165,0.5163,0.5164,0.5171,0.5171,0.5172,0.5172,0,0.5133,0.5142,0.5134,0.5142,0.5144,0.5136,0.5142,0.5137,0.5143,0.5137,0.5136,0.5144,0.514,0.5146,0.5142,0.5146,0.5133,0.5137,0.5133,0.5133,0.5122,0.5123,0.5085,0.508,0.5118,0.5117,0.5117,0,0.5114,0.5107,0.5115,0.5114,0.5116,0.5113,0.5112,0.5123,0.5121,0.5124,0.5118,0.5116,0.5114,0.5107,0.5111,0.5109,0.5112,0.5099,0.5112,0.511,0.5111,0.5112,0.5111,0.5096,0.5096,0.5095,0.5095,0,0.5078,0.5084,0.5083,0.5084,0.5083,0.5083,0.5085,0.5083,0.5094,0.5092,0.5089,0.5088,0.5085,0.5082,0.5081,0.5082,0.509,0.5091,0.5089,0.5085,0.5083,0.5084,0.5125,0.5092,0.5092,0.5092,0.5092,0.5093,0.5051,0.5047,0.5052,0.5051,0.5053,0.5055,0.5051,0.5057,0.5055,0.5055,0.5061,0.5057,0.5059,0.5059,0.506,0.5056,0.5062,0.5058,0.5056,0.5055,0.5053,0.5085,0.5056,0.5056,0.5056,0.5056,0.5056,0,0.5016,0.5021,0.502,0.5022,0.5021,0.5031,0.5034,0.5032,0.5029,0.5031,0.503,0.5027,0.5024,0.503,0.5028,0.5024,0.5027,0.5023,0.5023,0.5023,0.5048,0.5051,0.502,0.502,0.502,0.502,0.502,0.502,0.4998,0.4991,0.4997,0.4992,0.4996,0.4993,0.4994,0.4995,0.4997,0.4994,0.4992,0.4997,0.5,0.4999,0.4997,0.4999,0.4997,0.4992,0.4994,0.5018,0.5021,0.5024,0.5027,0.4991,0.4991,0.4969,0.4969,0.4969]}]]